Vorticity
8 9 9 8 5 3 4 5 3 4 7 4 4 11 14 11 9 8 6 6 8 5 2 2 2 2 5 6 4 2 2 2 4 9 11 7 5 4 1 1 3 3 2 2 2 3 4 4 4 4 3 2 3 4 4 1 -1 4 8 5 7 10 8 7 8 9 9 8 10 9 7 7 7 9 7 6 6 10 15 16 19 17 12 12 10 12 13 9
9 8 9 9 8 5 3 5 5 3 5 7 4 5 12 14 11 9 7 6 8 8 4 2 2 1 3 7 5 3 3 2 4 7 9 9 6 3 3 2 3 2 2 2 2 3 3 5 5 3 3 2 2 4 4 3 2 4 3 2 7 9 8 6 3 6 8 6 8 9 9 9 7 7 8 8 7 6 10 12 14 19 19 15 12 12 12 11
9 9 9 9 9 8 5 3 4 5 3 5 7 4 5 11 14 12 9 7 7 8 7 3 2 2 2 5 6 4 3 2 4 4 7 10 6 3 5 3 2 2 1 1 3 3 3 4 4 3 3 3 3 4 3 5 6 4 3 3 4 6 9 7 3 4 4 3 6 9 10 11 9 8 8 8 8 7 8 10 10 12 17 20 18 15 14 14
9 10 10 9 9 9 9 6 3 4 5 4 6 6 4 5 11 14 12 9 7 8 9 6 3 2 2 3 6 6 4 5 4 2 7 10 7 5 4 4 3 2 1 2 5 4 2 3 3 3 4 3 3 3 2 5 6 5 5 3 1 3 9 9 6 5 4 4 5 8 12 13 11 9 8 8 7 7 6 8 11 10 12 14 14 14 16 18
8 9 10 10 10 9 9 9 6 3 4 5 4 6 6 4 5 11 14 12 9 8 8 8 5 3 2 2 4 7 5 4 4 3 7 8 7 6 4 6 4 2 2 2 4 3 2 2 3 4 3 2 2 2 2 5 7 6 5 2 2 3 6 8 7 8 8 4 2 3 8 12 14 12 9 9 8 6 6 7 8 8 9 9 9 8 10 13
8 8 9 10 10 11 10 9 9 6 4 4 4 5 6 6 4 6 12 14 12 9 8 9 8 4 3 2 3 6 2 0 4 4 6 7 7 5 4 6 3 2 3 1 2 2 1 1 3 4 4 3 2 2 3 6 8 6 4 3 4 4 4 6 6 9 9 3 -1 -2 2 7 13 16 13 11 10 9 7 7 6 6 6 6 8 8 7 7
8 8 8 9 10 10 11 10 10 9 6 4 4 4 5 6 5 4 7 12 14 11 9 8 9 7 4 3 2 4 4 4 5 4 6 7 5 5 4 5 3 3 4 3 3 1 1 1 2 2 2 4 4 3 2 4 7 5 3 5 5 4 4 4 5 7 6 4 0 -3 0 3 7 15 16 12 11 13 12 9 6 5 6 5 6 6 6 7
8 8 8 8 9 9 11 11 10 10 9 6 4 4 5 6 6 5 4 8 13 13 11 8 9 9 6 4 2 4 6 5 4 4 5 5 5 6 5 5 4 4 4 3 4 3 1 -0 -0 1 2 4 3 2 1 -0 4 4 1 3 6 4 3 3 5 6 4 3 2 -0 1 0 2 11 18 15 11 12 14 13 10 7 7 6 5 4 3 4
7 8 8 8 9 9 10 11 11 11 10 9 6 4 4 5 6 6 4 5 9 13 13 10 9 9 8 7 3 4 5 3 3 5 5 3 5 6 5 5 3 3 3 2 4 2 -2 -2 -1 -0 2 3 2 2 2 1 4 4 1 2 6 6 4 1 3 6 5 3 1 2 2 -0 1 8 16 18 12 9 11 13 13 10 9 8 6 5 3 3
7 7 7 8 8 9 9 10 11 11 11 11 8 6 4 4 5 7 6 4 6 10 13 12 9 9 10 8 5 3 4 4 4 5 5 4 5 6 4 2 1 3 2 1 3 -0 -2 -1 -3 -2 0 1 1 2 2 5 7 4 -0 1 5 7 6 2 1 5 7 7 4 2 3 2 1 4 10 16 14 8 8 11 12 11 10 11 10 8 7 5
7 7 7 7 7 8 9 10 10 11 11 11 11 8 5 5 5 6 7 5 5 7 11 13 10 9 10 9 8 5 3 5 5 3 5 5 5 6 4 0 1 3 2 0 1 1 -0 -2 -1 1 1 -0 -1 -0 0 3 5 3 0 -1 2 5 6 5 2 2 4 7 5 2 2 3 3 4 5 8 11 10 7 9 13 14 12 11 11 9 8 6
7 7 6 6 7 7 8 9 10 11 11 11 11 10 8 6 5 5 6 7 5 5 9 12 12 10 10 10 10 8 4 3 5 3 3 5 6 7 3 0 3 3 2 -0 0 4 1 -1 3 2 -1 -1 -0 3 3 2 4 5 2 -3 -3 1 5 7 4 1 3 4 5 2 -0 2 4 5 5 5 7 10 10 10 11 13 13 13 12 10 9 7
7 7 7 6 7 7 7 8 10 11 11 11 11 11 11 7 6 5 5 7 7 5 6 10 13 11 11 12 10 9 7 3 4 4 3 5 7 6 3 1 5 5 1 -1 0 5 3 -1 3 2 1 1 0 4 4 3 3 2 2 -0 -4 -3 2 7 7 3 2 3 4 1 -3 -1 3 4 4 5 5 7 7 8 8 8 9 11 11 9 8 6
9 8 7 7 7 7 7 7 8 10 11 11 11 11 11 10 8 6 4 6 7 7 5 7 12 12 13 11 8 10 10 4 3 3 3 5 7 6 4 3 4 4 3 1 1 5 4 0 3 5 4 2 1 3 2 1 0 -0 3 3 -2 -3 1 4 8 7 2 2 2 1 -0 -1 1 2 2 2 3 4 4 5 7 8 9 9 10 10 7 7
10 10 9 8 7 7 7 7 7 9 11 11 11 11 11 12 10 8 6 5 6 8 6 5 8 12 13 9 9 12 11 8 4 3 4 5 6 5 4 4 5 5 3 1 1 6 6 5 6 4 2 3 0 0 2 1 -0 2 2 5 4 -0 1 3 6 8 4 2 0 0 2 -1 -1 1 1 2 0 1 2 1 3 5 7 7 8 12 13 12
11 11 11 9 9 8 8 8 8 8 10 11 11 11 11 12 12 10 8 5 5 7 7 6 5 10 12 9 11 13 11 10 7 4 4 5 4 3 4 6 8 6 1 -1 2 7 7 6 6 4 3 5 2 0 1 1 2 4 1 5 9 1 0 4 5 7 4 2 3 1 3 0 -1 0 -0 1 1 2 2 -0 2 4 5 5 4 11 14 12
11 12 12 11 10 9 8 8 9 9 9 11 11 10 10 11 12 12 10 7 5 5 8 7 4 7 11 11 13 13 11 11 9 5 4 5 4 3 4 5 7 6 1 -1 2 6 6 5 6 6 5 3 4 0 -4 2 6 2 -0 4 7 1 1 5 4 7 5 2 4 4 5 3 -0 0 -0 -0 1 3 4 0 2 5 4 4 3 7 10 10
11 12 13 12 11 9 9 9 9 9 9 11 10 10 10 10 11 12 12 10 6 5 7 7 7 7 8 11 12 11 11 12 11 7 4 5 5 3 4 4 6 6 2 1 3 5 4 4 4 6 4 -1 4 4 -1 8 8 -2 2 4 1 -1 1 4 3 8 6 -0 2 2 2 2 -1 -1 1 -0 -0 3 5 2 2 5 5 4 4 3 4 9
10 12 13 13 12 11 10 9 9 9 9 10 11 10 10 9 10 11 12 12 9 6 5 7 8 6 6 9 10 10 11 12 13 10 6 5 4 4 3 4 6 6 4 3 2 3 4 5 3 -0 2 0 3 8 4 6 3 -1 7 5 -3 -3 1 5 2 8 10 -0 -1 1 -1 1 0 1 3 1 -0 1 3 5 3 4 4 4 5 3 0 4
9 11 13 13 13 12 10 10 10 9 9 10 11 10 10 9 9 10 12 13 11 7 5 7 7 5 6 8 10 11 10 12 13 12 8 5 5 4 2 5 5 5 6 3 2 4 4 6 2 -4 4 8 2 4 6 4 4 7 7 1 -1 -3 -2 6 4 6 11 1 -3 1 1 1 2 4 7 3 1 0 1 5 4 2 4 5 7 5 -0 2
10 10 12 13 13 12 11 10 10 10 10 10 10 11 10 9 9 10 13 13 13 10 7 7 8 8 6 5 9 10 11 13 12 13 10 5 6 4 2 4 4 5 4 -1 3 6 5 6 2 -3 4 8 -0 1 8 7 6 7 2 -0 1 -2 -2 5 6 4 8 5 -2 0 2 1 3 6 8 5 2 1 1 5 5 2 3 6 8 4 -2 2
10 11 11 12 12 13 11 10 10 10 10 10 10 10 10 9 9 9 11 13 15 13 9 7 8 8 7 6 8 10 12 12 12 15 12 7 7 4 2 5 5 6 3 1 4 5 5 4 -2 -2 4 5 1 2 6 5 4 3 1 2 -0 -3 -0 3 3 3 7 7 0 0 3 0 3 6 6 5 2 2 1 4 6 3 3 5 7 3 -2 3
10 11 11 11 12 13 11 10 10 10 10 10 10 10 10 10 9 9 9 11 14 15 12 8 7 7 8 7 7 9 11 12 13 15 13 10 7 3 2 7 6 3 5 8 4 4 6 1 1 3 1 3 4 3 6 4 4 3 -2 -1 -2 -5 -2 -1 -0 2 6 7 2 2 3 1 3 4 4 5 3 2 2 4 5 2 3 4 4 4 1 3
11 11 11 10 11 12 11 10 9 10 10 10 11 10 11 10 9 9 10 11 13 15 15 11 7 7 8 7 6 8 10 11 13 13 16 13 5 3 3 7 5 -0 6 9 3 8 4 -3 10 11 -2 3 4 3 9 2 1 11 3 -6 -5 -5 -4 -2 0 1 3 5 3 5 5 3 3 3 3 4 4 3 2 5 5 1 4 4 3 5 4 3
11 12 12 10 11 12 11 10 9 10 10 10 11 10 11 11 10 10 10 11 13 15 15 13 10 7 8 10 7 6 9 12 12 13 19 14 6 7 4 5 8 1 3 6 6 11 -0 -6 12 10 -3 4 2 1 9 -2 -6 14 13 -3 -3 -1 -2 3 4 1 4 6 3 7 9 5 4 5 3 2 3 3 3 5 4 2 4 5 4 6 3 2
11 11 12 11 10 11 11 10 9 10 10 11 10 10 11 10 10 10 9 11 13 14 15 13 11 8 7 11 9 7 8 10 11 13 17 15 10 9 2 3 12 6 2 8 10 6 -2 1 9 4 -1 4 1 -1 5 0 -7 2 10 4 1 2 2 5 8 7 5 3 0 5 11 8 6 6 2 0 3 3 4 6 5 4 6 6 6 6 1 2
11 11 12 11 10 11 11 10 10 10 10 11 10 10 11 10 11 10 9 11 13 13 15 12 12 10 7 10 11 8 7 9 12 12 15 18 13 8 5 5 9 4 2 9 10 2 -0 5 5 2 1 2 3 2 5 8 -2 -8 2 7 3 4 6 7 9 6 0 -0 0 3 10 9 5 5 0 -0 5 5 5 6 5 5 5 4 7 4 0 2
14 13 12 11 10 11 11 10 10 11 11 11 10 9 9 10 11 10 9 11 12 13 14 13 13 11 7 8 11 9 7 8 12 12 14 18 17 11 7 6 7 5 4 9 8 3 6 7 2 2 3 3 1 -3 4 11 1 -8 -2 3 4 5 7 7 7 5 2 3 2 3 10 9 2 2 1 3 8 7 7 6 1 1 3 3 4 4 2 4
18 15 13 11 10 10 11 11 10 11 12 10 10 9 8 9 10 10 10 10 11 13 13 14 14 12 8 7 9 9 7 7 10 13 14 16 17 15 8 5 8 5 6 12 7 2 10 9 2 3 4 3 -0 -6 1 9 4 1 2 3 5 5 6 7 7 7 4 1 4 9 9 5 2 0 2 8 9 7 9 4 -3 -0 5 4 3 3 3 3
19 17 14 11 10 11 11 11 11 11 12 11 9 8 7 8 9 8 11 10 10 12 14 14 14 13 10 8 9 9 8 7 8 11 14 15 16 15 10 6 7 4 4 12 7 -1 10 12 4 8 5 -2 2 2 1 6 6 4 3 4 7 8 9 8 4 5 5 5 11 9 -3 -2 4 0 3 11 9 9 10 2 -1 4 5 4 3 2 3 5
18 17 14 11 9 11 11 11 12 11 11 11 9 8 6 7 8 8 11 11 7 10 15 14 14 14 11 8 9 9 8 8 7 8 12 16 17 15 12 7 6 5 3 9 7 -2 8 11 -0 5 6 -3 4 4 -3 2 7 4 2 2 4 8 9 9 7 6 6 5 5 1 -6 4 9 0 5 13 9 8 7 1 3 5 1 -1 1 3 7 10
16 15 12 11 9 11 11 10 12 11 11 11 10 9 6 6 9 8 9 11 7 6 12 16 16 16 12 8 8 8 8 7 8 9 10 15 17 15 14 9 6 6 2 7 9 1 7 11 -0 2 5 2 8 5 -3 1 3 3 2 1 6 7 5 11 11 6 5 3 5 7 4 9 9 2 8 13 7 5 5 4 4 0 -2 1 6 10 11 9
14 13 11 11 10 11 12 11 11 12 13 11 9 9 7 5 9 11 9 9 8 6 8 13 18 18 15 11 9 9 8 6 6 9 10 13 16 17 16 10 7 9 5 7 10 4 7 7 1 4 2 1 10 7 1 1 -1 2 1 1 9 6 3 13 11 9 12 7 7 9 3 7 8 5 9 8 4 5 4 4 3 1 6 10 14 15 10 5
13 13 11 11 11 12 12 11 11 12 13 12 9 8 7 6 8 12 11 8 9 9 7 9 15 19 16 11 10 11 10 8 7 7 8 10 13 17 17 12 10 10 4 6 10 10 13 6 1 9 3 -3 6 8 7 6 0 3 3 1 6 2 -0 5 3 4 4 -2 3 8 9 15 10 3 7 4 1 5 3 2 5 7 11 13 12 9 5 5
14 13 12 12 12 12 12 12 11 12 12 12 10 7 6 7 7 9 12 10 8 9 9 9 11 16 17 12 10 11 12 10 8 6 6 10 12 14 17 14 12 9 3 5 7 7 13 9 5 15 12 1 2 1 4 8 2 3 4 -0 2 5 3 1 0 0 -3 -2 11 20 19 15 5 1 5 2 -1 2 -0 -0 5 8 7 5 4 2 3 6
14 13 12 12 12 13 12 12 12 12 11 10 11 8 6 6 7 8 11 12 10 8 9 10 11 14 16 14 10 9 12 12 10 8 6 9 12 11 14 15 14 11 5 5 6 4 9 6 3 11 12 7 7 1 2 9 5 2 7 4 -0 2 2 2 4 2 4 10 14 17 15 7 1 3 2 0 0 0 -2 -2 1 4 5 4 3 2 5 8
14 13 13 12 13 13 12 12 12 12 11 9 9 10 8 5 5 7 9 11 11 9 9 9 11 13 14 14 12 9 11 12 12 10 7 8 11 11 12 15 17 15 10 8 7 6 10 8 7 13 12 9 10 3 3 9 3 -4 2 8 7 7 8 9 4 -2 4 13 10 8 7 1 3 2 -3 -0 1 -1 0 -1 -3 2 6 6 4 4 8 10
13 13 14 13 13 14 13 13 13 12 11 9 8 9 10 7 4 6 8 9 10 9 9 9 10 13 14 13 12 11 11 12 12 12 9 8 10 12 11 11 17 19 16 14 9 7 12 9 8 14 12 11 14 7 3 8 8 3 -1 -2 2 6 10 10 5 3 4 8 8 5 2 4 9 4 -2 1 1 -0 2 -1 -4 1 6 5 2 4 11 13
12 14 14 13 14 14 13 13 13 11 10 9 8 8 9 9 7 6 5 7 8 8 9 9 9 13 16 13 10 12 13 12 12 13 12 10 8 11 12 9 12 16 16 16 12 11 14 9 8 13 7 7 14 15 10 4 6 11 4 -1 4 9 12 8 6 11 9 4 5 3 4 9 9 6 3 1 0 1 1 -1 -2 1 5 6 3 6 15 15
13 14 14 13 14 14 13 13 12 10 9 9 9 8 8 8 8 8 7 6 6 8 9 9 10 12 14 13 10 12 14 12 13 13 12 10 8 9 13 11 9 11 14 15 13 14 15 8 7 10 8 8 11 17 19 7 6 15 10 5 10 16 20 10 1 9 10 5 4 3 7 7 -1 0 4 0 1 2 -0 1 1 1 5 6 3 8 16 16
13 14 13 13 13 13 12 12 11 9 8 9 9 8 8 8 8 9 9 9 8 8 8 9 10 10 11 12 11 10 13 13 14 16 12 11 10 8 11 13 10 9 11 13 14 15 14 8 3 5 11 15 12 12 14 7 10 18 14 8 6 9 15 8 -1 6 6 2 3 0 2 2 -6 -3 3 1 2 2 0 3 1 1 6 4 3 9 15 17
13 13 12 12 12 12 12 11 10 9 7 8 8 8 9 8 8 9 9 10 9 9 9 9 10 10 9 12 11 10 13 13 15 17 13 12 12 8 10 12 12 10 8 9 15 15 12 9 7 6 6 4 4 9 13 11 15 17 11 9 8 7 13 10 2 4 5 4 6 4 5 6 2 3 6 4 2 1 2 2 -1 3 7 2 4 12 16 18
13 13 11 12 12 12 12 11 9 9 8 7 7 8 9 9 8 9 9 10 10 10 10 9 8 9 10 11 13 12 13 16 19 17 12 11 11 10 11 12 13 13 10 9 10 12 13 13 11 9 3 -1 2 10 14 12 12 12 10 10 10 7 7 4 -3 -1 5 4 3 6 10 7 0 1 4 4 2 3 2 -1 1 6 5 1 7 15 19 19
13 13 11 12 12 11 11 10 9 9 8 7 7 7 8 9 9 10 10 10 11 11 10 8 7 8 10 12 13 15 15 18 20 14 9 10 9 8 9 11 14 15 14 14 12 12 15 13 10 11 13 14 14 12 13 12 6 5 7 7 6 5 5 2 -1 0 2 -4 -4 8 12 2 -4 -0 4 3 2 1 -0 -0 6 6 1 5 14 19 20 17
13 13 10 11 11 11 11 10 8 8 7 6 7 7 7 9 10 11 12 11 11 11 9 8 7 6 9 10 12 16 18 19 17 10 8 9 7 7 9 11 15 15 15 16 14 15 16 13 11 9 7 13 18 13 11 12 8 4 6 4 0 2 4 2 1 3 1 -5 -1 10 9 -1 -2 2 2 1 0 1 2 4 5 3 4 13 19 19 16 13
12 12 10 10 11 11 11 11 8 7 8 6 6 8 8 10 11 12 13 12 10 11 10 8 6 5 6 7 9 15 19 18 13 10 10 8 5 7 9 11 14 16 16 13 11 14 14 12 12 5 -3 2 8 6 4 7 9 10 11 8 3 3 3 -1 -2 -2 -2 2 5 7 7 2 0 2 2 2 4 4 5 4 3 6 13 19 19 15 10 7
12 11 11 9 11 12 10 11 9 6 7 6 6 7 8 11 12 11 13 13 9 10 10 6 5 3 4 6 9 14 19 16 13 13 12 7 5 6 8 12 15 17 17 13 11 14 11 10 9 -1 -5 3 5 6 10 13 14 12 10 9 6 5 3 0 0 -3 -2 9 8 1 5 6 3 5 6 5 5 4 3 5 8 14 19 19 15 10 5 6
11 11 12 9 10 12 11 11 10 7 6 6 6 7 8 12 13 11 13 13 9 10 9 5 4 3 3 7 9 14 18 14 11 15 11 4 7 8 9 17 18 16 17 13 12 14 4 3 13 5 -4 1 5 10 12 10 11 11 9 8 6 4 2 -1 2 3 6 12 6 -2 5 8 5 6 4 2 3 4 7 13 18 20 18 14 10 6 5 8
11 11 11 10 10 12 12 11 10 9 7 6 7 7 8 12 14 13 13 12 9 11 9 5 4 4 4 6 10 16 19 14 11 13 7 3 10 12 12 19 17 14 17 12 11 17 1 -10 7 17 8 3 2 4 4 2 5 6 3 3 1 1 3 4 8 11 12 11 7 5 8 5 2 2 1 4 9 13 18 22 21 17 13 9 7 6 8 12
11 10 10 11 11 11 12 11 9 9 8 7 8 7 7 12 15 14 13 12 11 11 8 6 6 5 4 7 12 14 17 19 16 7 2 6 11 10 10 17 19 17 17 8 3 15 11 -6 -2 12 16 13 8 4 3 2 3 3 4 7 9 10 13 15 16 14 12 10 8 6 3 0 1 4 8 12 14 15 18 16 12 11 8 7 9 11 14 14
11 10 9 11 13 11 10 10 9 10 10 10 10 7 6 11 15 15 13 12 12 10 9 8 6 4 4 8 13 10 10 22 19 2 3 11 8 9 14 19 24 22 16 7 -1 4 9 2 -1 7 11 10 9 9 7 5 6 7 8 8 8 12 14 15 14 11 8 7 3 1 3 6 9 11 12 11 9 8 9 8 7 6 6 9 13 15 13 9
11 10 9 11 13 11 9 10 11 11 12 12 11 7 6 9 15 18 13 11 12 12 10 8 5 5 5 7 14 10 4 17 18 4 9 12 1 8 18 15 20 22 14 11 5 2 7 5 -1 4 8 6 7 9 7 8 10 10 10 9 10 13 13 9 7 5 3 3 3 6 10 11 10 9 8 6 7 10 10 9 7 6 9 14 15 11 8 7
Height
5917 5918 5919 5919 5920 5921 5922 5922 5923 5924 5925 5926 5926 5927 5928 5929 5930 5931 5932 5932 5933 5934 5935 5937 5938 5939 5941 5942 5943 5944 5945 5945 5945 5946 5946 5947 5947 5947 5947 5948 5948 5947 5947 5947 5946 5946 5946 5946 5945 5944 5943 5942 5941 5940 5940 5939 5938 5937 5935 5935 5935 5932 5932 5930 5928 5928 5926 5925 5924 5923 5922 5920 5918 5917 5915 5914 5913 5912 5911 5910 5909 5908 5907 5906 5904 5903 5903 5903
5916 5916 5917 5918 5919 5920 5920 5921 5922 5922 5923 5924 5925 5926 5927 5928 5929 5930 5931 5932 5932 5933 5934 5936 5937 5938 5940 5942 5943 5944 5944 5945 5945 5946 5946 5947 5947 5947 5948 5948 5948 5948 5948 5948 5947 5947 5947 5947 5946 5945 5944 5943 5943 5942 5941 5940 5940 5938 5937 5937 5936 5934 5933 5931 5931 5930 5928 5927 5926 5925 5923 5922 5920 5919 5917 5916 5915 5914 5913 5912 5910 5910 5908 5907 5906 5905 5905 5905
5914 5915 5916 5916 5917 5918 5919 5920 5920 5921 5922 5923 5924 5925 5926 5927 5928 5929 5930 5931 5931 5932 5933 5935 5936 5938 5939 5941 5942 5943 5944 5945 5945 5946 5946 5947 5947 5948 5948 5948 5948 5948 5948 5949 5949 5948 5948 5948 5947 5947 5946 5945 5944 5943 5943 5942 5941 5940 5939 5938 5937 5936 5935 5933 5932 5931 5930 5929 5927 5926 5925 5924 5922 5921 5919 5918 5916 5915 5914 5913 5912 5911 5910 5909 5908 5907 5907 5906
5913 5913 5914 5915 5915 5916 5917 5918 5919 5920 5921 5922 5923 5924 5925 5926 5927 5927 5929 5930 5931 5931 5932 5933 5935 5936 5938 5940 5941 5943 5944 5945 5945 5946 5946 5947 5947 5948 5948 5949 5949 5949 5949 5949 5950 5949 5949 5949 5949 5948 5947 5946 5946 5945 5944 5943 5942 5941 5940 5939 5938 5937 5936 5935 5934 5933 5931 5930 5929 5928 5927 5925 5924 5922 5921 5919 5918 5917 5916 5914 5914 5913 5911 5910 5909 5909 5908 5908
5911 5912 5912 5913 5914 5915 5916 5917 5918 5919 5920 5921 5922 5923 5924 5925 5926 5926 5927 5928 5930 5931 5931 5932 5934 5935 5937 5939 5940 5942 5943 5945 5945 5945 5946 5947 5947 5948 5949 5949 5950 5950 5949 5949 5950 5950 5950 5950 5950 5949 5948 5948 5947 5946 5946 5945 5944 5943 5941 5940 5939 5938 5938 5937 5935 5934 5933 5931 5930 5929 5928 5927 5925 5924 5922 5921 5920 5918 5917 5915 5914 5914 5913 5912 5911 5910 5909 5909
5909 5910 5911 5912 5912 5913 5914 5915 5916 5917 5918 5919 5920 5922 5923 5924 5924 5925 5926 5927 5928 5930 5930 5931 5932 5934 5936 5937 5939 5941 5942 5943 5944 5945 5946 5946 5947 5948 5949 5950 5950 5950 5950 5950 5950 5951 5951 5951 5950 5950 5949 5949 5948 5947 5947 5946 5945 5944 5943 5941 5940 5939 5939 5938 5937 5935 5934 5933 5932 5930 5930 5929 5927 5926 5924 5922 5921 5920 5919 5917 5916 5915 5914 5913 5912 5911 5910 5910
5908 5908 5909 5910 5911 5911 5912 5913 5914 5915 5917 5918 5919 5920 5921 5922 5923 5924 5925 5925 5927 5928 5929 5930 5931 5932 5934 5936 5938 5939 5941 5942 5943 5944 5945 5946 5947 5948 5949 5950 5951 5951 5951 5950 5950 5951 5951 5951 5951 5951 5950 5950 5949 5948 5948 5947 5946 5946 5945 5943 5941 5940 5939 5939 5938 5937 5936 5934 5934 5932 5931 5930 5928 5927 5925 5924 5923 5922 5921 5919 5918 5916 5915 5914 5913 5912 5911 5911
5905 5906 5907 5908 5909 5910 5911 5912 5913 5914 5915 5916 5917 5918 5920 5921 5922 5923 5923 5924 5925 5927 5928 5929 5930 5931 5933 5935 5936 5938 5940 5942 5943 5944 5945 5946 5946 5948 5949 5950 5951 5951 5951 5951 5951 5951 5951 5952 5952 5951 5951 5951 5950 5949 5948 5948 5947 5947 5946 5945 5943 5941 5940 5940 5940 5939 5937 5936 5936 5934 5932 5932 5930 5929 5927 5925 5924 5923 5922 5921 5920 5918 5917 5916 5914 5913 5912 5911
5903 5904 5905 5906 5907 5908 5909 5910 5911 5912 5913 5914 5915 5917 5918 5919 5920 5921 5922 5923 5924 5925 5927 5928 5929 5930 5931 5933 5935 5937 5939 5940 5942 5943 5944 5945 5946 5947 5948 5949 5950 5951 5951 5951 5951 5951 5951 5952 5952 5952 5952 5951 5951 5950 5949 5949 5948 5948 5947 5947 5945 5943 5942 5941 5941 5940 5939 5938 5937 5935 5934 5933 5932 5930 5928 5927 5926 5925 5924 5923 5921 5920 5919 5917 5916 5914 5913 5912
5901 5902 5903 5904 5905 5906 5907 5908 5909 5910 5911 5912 5913 5915 5916 5917 5919 5920 5921 5922 5923 5923 5925 5927 5928 5929 5930 5932 5933 5935 5937 5939 5941 5942 5943 5944 5945 5946 5948 5949 5950 5950 5951 5951 5950 5951 5951 5952 5952 5952 5952 5952 5951 5951 5950 5949 5949 5948 5948 5948 5947 5945 5944 5942 5942 5941 5941 5940 5938 5936 5935 5934 5933 5932 5930 5929 5928 5926 5925 5924 5923 5922 5920 5918 5917 5916 5914 5913
5899 5900 5901 5902 5903 5904 5905 5906 5907 5908 5909 5910 5911 5913 5914 5916 5917 5918 5919 5920 5921 5922 5923 5925 5926 5928 5928 5930 5932 5934 5936 5938 5939 5941 5942 5943 5944 5946 5947 5948 5949 5950 5951 5950 5950 5951 5951 5952 5952 5952 5952 5952 5952 5951 5950 5950 5949 5949 5949 5949 5948 5946 5946 5945 5943 5942 5942 5941 5939 5938 5937 5936 5935 5933 5932 5931 5929 5928 5927 5926 5924 5923 5922 5920 5919 5918 5916 5915
5897 5898 5898 5899 5900 5902 5903 5904 5905 5906 5907 5908 5909 5911 5912 5914 5915 5916 5918 5919 5920 5921 5922 5923 5925 5926 5927 5928 5930 5932 5934 5936 5938 5940 5941 5942 5944 5945 5946 5947 5948 5949 5950 5950 5950 5950 5951 5952 5952 5952 5952 5953 5952 5951 5951 5950 5950 5950 5949 5949 5949 5948 5947 5946 5945 5943 5943 5942 5940 5939 5938 5936 5936 5935 5934 5932 5931 5930 5929 5927 5926 5924 5923 5922 5921 5920 5918 5917
5895 5896 5896 5897 5898 5899 5900 5902 5903 5904 5905 5906 5907 5908 5910 5911 5913 5914 5916 5917 5918 5919 5920 5921 5923 5925 5926 5927 5928 5929 5932 5935 5936 5938 5940 5941 5943 5944 5945 5946 5948 5949 5949 5949 5950 5950 5951 5951 5952 5952 5953 5953 5952 5952 5952 5951 5951 5950 5950 5950 5949 5949 5948 5947 5947 5945 5944 5943 5941 5940 5939 5937 5937 5937 5935 5934 5932 5931 5930 5929 5927 5926 5925 5924 5923 5921 5920 5919
5893 5893 5894 5895 5896 5897 5898 5899 5901 5902 5903 5904 5905 5906 5908 5909 5911 5912 5914 5915 5916 5918 5919 5920 5921 5923 5924 5925 5925 5927 5931 5933 5934 5936 5938 5940 5941 5943 5944 5945 5947 5948 5949 5949 5949 5950 5951 5951 5952 5952 5953 5953 5952 5952 5952 5952 5951 5951 5950 5950 5950 5949 5949 5948 5948 5947 5945 5944 5942 5941 5939 5938 5938 5938 5937 5935 5934 5932 5931 5930 5929 5927 5926 5925 5924 5923 5921 5920
5891 5891 5892 5893 5893 5895 5896 5897 5898 5900 5901 5902 5903 5904 5905 5907 5908 5910 5912 5913 5914 5916 5917 5918 5919 5921 5923 5923 5923 5926 5929 5931 5933 5934 5936 5938 5940 5941 5942 5944 5946 5947 5948 5949 5949 5950 5950 5951 5951 5952 5952 5952 5952 5952 5952 5952 5952 5951 5951 5951 5951 5950 5949 5949 5948 5948 5947 5945 5943 5942 5941 5939 5939 5938 5938 5936 5935 5933 5932 5931 5929 5928 5927 5926 5925 5924 5922 5920
5888 5889 5889 5890 5891 5892 5893 5895 5896 5897 5899 5900 5901 5902 5903 5904 5906 5908 5909 5911 5912 5914 5915 5916 5918 5919 5920 5921 5923 5925 5927 5929 5931 5933 5935 5936 5938 5939 5941 5943 5945 5946 5947 5948 5949 5949 5950 5951 5951 5952 5952 5952 5952 5952 5952 5953 5952 5952 5952 5951 5951 5951 5950 5949 5949 5948 5947 5946 5944 5943 5942 5941 5940 5939 5938 5937 5936 5934 5932 5931 5930 5929 5928 5927 5925 5924 5922 5920
5886 5886 5887 5887 5888 5889 5891 5892 5894 5895 5896 5897 5898 5900 5901 5902 5903 5905 5907 5908 5910 5911 5913 5914 5916 5918 5918 5920 5922 5923 5925 5927 5929 5931 5933 5935 5936 5938 5939 5941 5943 5945 5946 5947 5948 5949 5949 5950 5951 5951 5952 5952 5952 5952 5952 5954 5954 5953 5953 5952 5951 5951 5950 5950 5949 5948 5948 5947 5945 5944 5943 5942 5940 5939 5938 5937 5936 5934 5933 5931 5931 5930 5929 5927 5925 5923 5922 5921
5883 5884 5884 5885 5886 5887 5888 5890 5891 5892 5894 5895 5896 5897 5898 5900 5901 5903 5904 5906 5908 5909 5911 5912 5914 5916 5916 5918 5920 5921 5923 5925 5927 5929 5931 5933 5935 5936 5938 5939 5941 5943 5944 5945 5947 5948 5948 5949 5950 5951 5952 5952 5953 5952 5952 5954 5955 5954 5953 5953 5952 5952 5951 5950 5949 5949 5948 5947 5946 5944 5943 5942 5941 5940 5939 5937 5936 5934 5932 5931 5930 5930 5929 5926 5924 5923 5922 5920
5881 5881 5882 5883 5883 5885 5886 5888 5889 5890 5891 5892 5894 5895 5896 5897 5899 5900 5902 5904 5905 5907 5908 5910 5912 5913 5914 5916 5917 5919 5921 5923 5925 5927 5929 5931 5932 5935 5936 5938 5940 5942 5943 5945 5946 5947 5947 5948 5950 5951 5953 5953 5952 5952 5952 5953 5954 5954 5954 5953 5952 5952 5951 5950 5950 5949 5948 5947 5946 5945 5944 5942 5941 5940 5939 5938 5936 5933 5931 5930 5929 5929 5928 5926 5924 5922 5921 5919
5878 5879 5879 5880 5881 5882 5884 5885 5886 5887 5889 5890 5891 5893 5894 5895 5896 5898 5899 5901 5903 5904 5906 5908 5910 5911 5912 5914 5915 5917 5919 5921 5923 5925 5927 5928 5930 5933 5935 5936 5938 5940 5942 5943 5944 5945 5946 5947 5949 5950 5951 5951 5952 5952 5953 5953 5953 5954 5953 5953 5953 5952 5951 5950 5950 5949 5948 5947 5946 5945 5944 5943 5941 5941 5940 5938 5936 5933 5931 5929 5929 5928 5927 5925 5923 5922 5920 5919
5875 5876 5877 5878 5879 5880 5882 5883 5884 5885 5886 5888 5889 5890 5892 5893 5894 5896 5897 5899 5900 5902 5904 5906 5908 5909 5911 5912 5913 5915 5916 5919 5921 5923 5925 5926 5928 5931 5933 5935 5937 5939 5941 5941 5942 5944 5945 5946 5947 5948 5949 5950 5951 5951 5952 5953 5953 5953 5953 5953 5952 5952 5951 5950 5950 5949 5948 5947 5946 5945 5944 5943 5942 5941 5940 5938 5937 5934 5932 5929 5928 5927 5927 5925 5923 5922 5920 5918
5872 5873 5874 5875 5876 5878 5879 5881 5882 5883 5884 5885 5887 5888 5890 5891 5892 5894 5895 5897 5898 5900 5902 5904 5906 5907 5908 5910 5912 5913 5915 5916 5918 5921 5922 5924 5926 5929 5931 5933 5935 5938 5939 5939 5941 5943 5944 5946 5946 5946 5948 5949 5950 5951 5952 5952 5953 5953 5953 5953 5952 5951 5951 5950 5950 5949 5948 5947 5946 5945 5944 5943 5942 5941 5940 5939 5937 5935 5932 5930 5928 5927 5926 5924 5923 5922 5920 5918
5870 5871 5872 5873 5874 5875 5877 5878 5879 5880 5882 5883 5885 5886 5888 5889 5891 5892 5893 5895 5896 5898 5900 5902 5903 5905 5906 5908 5910 5912 5913 5914 5916 5918 5920 5922 5924 5926 5928 5931 5934 5935 5936 5938 5940 5942 5944 5946 5944 5945 5947 5948 5949 5950 5951 5952 5953 5953 5953 5953 5952 5951 5950 5950 5949 5949 5948 5947 5946 5945 5944 5943 5943 5941 5940 5939 5937 5935 5933 5931 5928 5926 5925 5924 5923 5922 5920 5918
5867 5868 5869 5870 5871 5873 5874 5876 5877 5878 5879 5881 5883 5884 5886 5887 5889 5890 5892 5893 5894 5896 5898 5899 5901 5903 5905 5907 5908 5910 5911 5913 5914 5916 5918 5920 5922 5924 5927 5930 5931 5933 5935 5937 5938 5940 5943 5942 5942 5944 5946 5947 5949 5950 5951 5952 5954 5953 5951 5952 5951 5950 5950 5950 5949 5949 5948 5947 5946 5945 5943 5942 5942 5941 5940 5939 5937 5936 5933 5931 5929 5926 5925 5924 5923 5921 5920 5918
5865 5866 5867 5868 5869 5870 5872 5873 5874 5876 5877 5879 5881 5882 5884 5886 5887 5889 5890 5891 5893 5894 5896 5897 5899 5901 5903 5905 5906 5908 5909 5911 5912 5914 5917 5918 5919 5922 5925 5927 5929 5932 5934 5935 5936 5939 5940 5939 5940 5943 5944 5946 5948 5949 5950 5951 5954 5953 5950 5950 5951 5950 5950 5950 5949 5949 5948 5947 5946 5944 5943 5942 5941 5941 5940 5939 5937 5935 5933 5931 5929 5926 5924 5923 5922 5921 5919 5917
5862 5863 5864 5865 5867 5868 5870 5871 5872 5874 5875 5877 5879 5881 5882 5884 5885 5887 5888 5889 5890 5891 5893 5895 5896 5898 5901 5903 5904 5906 5908 5909 5910 5912 5914 5916 5918 5921 5922 5925 5928 5930 5931 5932 5935 5937 5937 5937 5940 5942 5943 5945 5946 5947 5948 5949 5952 5953 5950 5949 5950 5950 5950 5949 5949 5948 5947 5946 5946 5945 5944 5942 5940 5940 5940 5939 5937 5935 5933 5931 5928 5926 5924 5923 5922 5921 5919 5917
5860 5861 5862 5863 5864 5866 5867 5869 5870 5872 5873 5875 5877 5879 5880 5882 5883 5884 5885 5887 5888 5889 5890 5892 5894 5896 5899 5900 5902 5904 5905 5906 5908 5910 5912 5914 5917 5919 5921 5924 5926 5927 5929 5931 5934 5934 5935 5937 5939 5940 5942 5943 5945 5947 5947 5947 5950 5950 5948 5948 5949 5949 5949 5948 5948 5948 5946 5945 5945 5945 5944 5942 5940 5940 5939 5938 5937 5935 5933 5931 5928 5925 5923 5922 5922 5921 5919 5917
5857 5858 5859 5860 5862 5863 5865 5866 5868 5870 5871 5873 5875 5877 5878 5879 5881 5882 5883 5884 5885 5886 5888 5890 5892 5894 5896 5898 5899 5901 5903 5905 5906 5908 5910 5912 5914 5917 5919 5921 5924 5926 5927 5930 5933 5933 5934 5936 5937 5938 5940 5943 5945 5944 5944 5946 5947 5946 5946 5947 5948 5947 5948 5947 5947 5947 5946 5945 5945 5944 5943 5942 5940 5939 5939 5938 5936 5934 5932 5930 5928 5925 5923 5921 5920 5920 5919 5917
5854 5855 5857 5858 5859 5861 5862 5864 5866 5867 5869 5871 5873 5874 5876 5877 5879 5880 5881 5882 5883 5884 5886 5888 5890 5892 5894 5895 5897 5899 5900 5902 5904 5906 5908 5910 5912 5915 5917 5919 5922 5924 5925 5928 5930 5930 5931 5933 5934 5936 5939 5941 5941 5941 5942 5945 5945 5944 5945 5946 5946 5946 5946 5947 5946 5946 5945 5945 5944 5943 5943 5941 5940 5939 5939 5937 5935 5934 5932 5930 5928 5925 5923 5920 5919 5919 5917 5916
5851 5853 5854 5856 5857 5858 5860 5862 5864 5865 5867 5869 5870 5872 5874 5875 5877 5878 5879 5880 5881 5883 5884 5886 5888 5890 5892 5894 5895 5897 5898 5900 5902 5904 5906 5908 5911 5913 5915 5918 5920 5921 5923 5926 5927 5927 5928 5930 5932 5934 5937 5938 5938 5939 5941 5943 5943 5944 5945 5945 5945 5945 5945 5945 5945 5945 5945 5944 5943 5943 5942 5941 5939 5938 5938 5936 5935 5933 5931 5929 5927 5925 5923 5920 5919 5918 5917 5915
5849 5850 5852 5853 5855 5856 5858 5860 5861 5863 5865 5867 5868 5870 5872 5874 5875 5876 5877 5878 5880 5881 5882 5884 5886 5888 5890 5892 5893 5895 5897 5899 5901 5903 5905 5907 5909 5910 5913 5916 5917 5919 5920 5922 5924 5925 5927 5929 5930 5932 5934 5935 5937 5939 5940 5941 5942 5943 5943 5944 5944 5944 5944 5944 5944 5943 5944 5943 5942 5942 5941 5940 5939 5938 5936 5935 5934 5932 5930 5928 5927 5924 5922 5920 5919 5917 5916 5914
5847 5848 5849 5851 5852 5854 5856 5857 5859 5861 5863 5865 5867 5869 5870 5872 5873 5874 5875 5877 5878 5879 5881 5883 5884 5886 5888 5890 5891 5893 5895 5897 5899 5901 5903 5905 5907 5909 5911 5913 5915 5917 5919 5921 5924 5924 5925 5928 5929 5931 5932 5934 5936 5937 5938 5939 5941 5942 5942 5943 5944 5944 5943 5943 5943 5942 5942 5941 5940 5940 5940 5939 5938 5937 5936 5934 5933 5931 5929 5927 5926 5924 5922 5919 5918 5917 5915 5913
5845 5846 5847 5849 5850 5852 5854 5855 5857 5859 5861 5863 5865 5867 5868 5870 5871 5872 5874 5875 5876 5878 5880 5881 5883 5885 5887 5889 5890 5891 5893 5895 5897 5899 5901 5904 5906 5908 5910 5911 5913 5915 5918 5920 5922 5922 5924 5926 5927 5929 5931 5932 5934 5935 5936 5939 5940 5940 5941 5942 5943 5944 5943 5943 5942 5941 5941 5939 5939 5939 5938 5938 5937 5936 5935 5934 5932 5930 5928 5926 5925 5923 5921 5918 5916 5915 5913 5911
5842 5844 5845 5846 5848 5850 5852 5853 5855 5857 5859 5861 5863 5865 5867 5868 5869 5871 5872 5873 5875 5877 5878 5880 5882 5883 5885 5887 5889 5890 5892 5894 5896 5897 5899 5902 5904 5906 5908 5910 5912 5914 5916 5917 5919 5921 5923 5925 5926 5928 5929 5930 5932 5934 5936 5938 5938 5938 5940 5940 5941 5942 5941 5941 5941 5941 5940 5938 5937 5937 5936 5936 5935 5934 5934 5933 5931 5929 5927 5925 5924 5921 5920 5917 5915 5914 5911 5909
5840 5841 5843 5844 5846 5848 5849 5851 5853 5855 5857 5859 5861 5863 5865 5866 5867 5869 5870 5871 5873 5875 5877 5879 5880 5882 5883 5885 5887 5889 5890 5892 5894 5896 5898 5900 5902 5904 5906 5908 5910 5912 5914 5916 5918 5919 5921 5922 5923 5925 5927 5928 5930 5933 5934 5936 5936 5936 5937 5938 5938 5939 5939 5939 5939 5939 5938 5936 5935 5935 5935 5934 5934 5933 5933 5932 5930 5928 5926 5924 5922 5920 5919 5917 5914 5912 5910 5907
5838 5839 5841 5842 5844 5846 5847 5849 5851 5853 5855 5857 5859 5861 5862 5864 5865 5867 5869 5870 5872 5874 5875 5877 5879 5880 5882 5883 5885 5887 5888 5890 5892 5895 5897 5899 5901 5902 5904 5906 5908 5910 5912 5914 5917 5918 5920 5921 5921 5923 5925 5927 5929 5930 5931 5933 5935 5934 5935 5936 5936 5937 5938 5937 5937 5936 5936 5935 5935 5934 5933 5933 5932 5931 5931 5930 5929 5927 5926 5924 5921 5919 5917 5915 5913 5911 5908 5905
5836 5837 5839 5840 5842 5844 5846 5847 5849 5851 5853 5855 5857 5859 5860 5862 5864 5866 5867 5869 5870 5872 5874 5876 5877 5879 5880 5882 5884 5885 5887 5889 5891 5893 5896 5897 5899 5901 5902 5904 5906 5908 5910 5913 5914 5916 5918 5919 5920 5922 5924 5924 5926 5927 5928 5931 5933 5932 5934 5935 5934 5935 5936 5936 5936 5935 5934 5934 5933 5932 5932 5931 5929 5927 5927 5928 5927 5926 5924 5922 5920 5918 5916 5914 5911 5909 5906 5903
5834 5835 5837 5839 5840 5842 5844 5846 5847 5849 5851 5853 5855 5857 5858 5860 5862 5864 5866 5867 5869 5871 5873 5874 5876 5878 5879 5881 5882 5883 5885 5888 5889 5892 5894 5896 5898 5899 5901 5902 5904 5906 5908 5910 5912 5913 5915 5917 5918 5920 5921 5921 5923 5925 5926 5928 5929 5930 5932 5932 5932 5933 5934 5934 5934 5934 5933 5933 5933 5931 5930 5929 5927 5925 5926 5926 5925 5924 5922 5920 5919 5917 5914 5912 5910 5907 5904 5901
5832 5834 5835 5837 5839 5840 5842 5844 5846 5848 5850 5852 5853 5855 5857 5859 5861 5863 5864 5866 5868 5870 5871 5873 5875 5876 5878 5879 5881 5882 5884 5886 5888 5891 5893 5895 5897 5898 5899 5901 5903 5904 5906 5908 5910 5911 5913 5916 5917 5917 5918 5919 5921 5923 5925 5926 5927 5929 5930 5930 5931 5932 5932 5932 5932 5932 5932 5932 5931 5930 5929 5927 5925 5925 5925 5924 5923 5922 5920 5918 5917 5915 5913 5910 5908 5905 5902 5898
5831 5832 5834 5835 5837 5839 5840 5842 5844 5846 5848 5850 5851 5853 5855 5857 5859 5861 5863 5865 5867 5869 5870 5872 5874 5875 5876 5878 5879 5881 5883 5885 5887 5889 5891 5893 5895 5897 5898 5899 5901 5902 5904 5906 5908 5910 5912 5914 5915 5915 5916 5918 5919 5920 5923 5924 5924 5926 5928 5929 5930 5930 5931 5931 5930 5930 5931 5930 5929 5929 5928 5925 5924 5924 5923 5922 5921 5920 5918 5916 5914 5912 5910 5908 5906 5903 5899 5896
5829 5830 5832 5833 5835 5837 5839 5840 5842 5844 5846 5848 5850 5851 5854 5856 5858 5860 5862 5864 5866 5867 5869 5871 5872 5873 5875 5877 5878 5880 5882 5884 5886 5888 5890 5892 5894 5895 5896 5897 5899 5901 5902 5904 5906 5908 5910 5912 5913 5913 5915 5918 5917 5916 5919 5920 5921 5924 5926 5927 5928 5928 5929 5929 5929 5929 5929 5929 5927 5927 5926 5923 5921 5922 5921 5920 5919 5917 5915 5914 5912 5910 5908 5905 5903 5900 5897 5894
5827 5828 5830 5831 5833 5835 5837 5839 5841 5842 5844 5846 5848 5850 5852 5854 5856 5858 5860 5862 5864 5866 5868 5869 5871 5872 5874 5875 5877 5879 5881 5882 5884 5886 5889 5891 5892 5893 5894 5896 5897 5899 5901 5903 5905 5907 5908 5909 5911 5912 5914 5915 5914 5913 5917 5919 5921 5923 5925 5925 5926 5926 5927 5927 5928 5927 5926 5926 5925 5924 5923 5920 5919 5920 5919 5918 5917 5915 5913 5911 5909 5907 5905 5903 5900 5898 5894 5892
5825 5827 5828 5830 5832 5833 5835 5837 5839 5841 5843 5844 5846 5848 5851 5853 5855 5857 5859 5861 5863 5864 5866 5868 5869 5871 5873 5875 5876 5878 5880 5881 5883 5885 5887 5889 5890 5891 5892 5894 5895 5897 5899 5901 5903 5904 5906 5907 5909 5910 5912 5912 5912 5914 5917 5919 5920 5922 5923 5924 5925 5925 5925 5926 5926 5925 5924 5924 5923 5923 5921 5917 5917 5918 5917 5915 5914 5912 5910 5908 5906 5905 5902 5900 5897 5895 5892 5889
5824 5825 5827 5828 5830 5832 5834 5836 5837 5839 5841 5843 5845 5847 5849 5851 5853 5855 5857 5859 5861 5863 5865 5867 5869 5870 5872 5874 5876 5878 5879 5881 5882 5884 5886 5887 5888 5890 5891 5892 5894 5896 5898 5900 5901 5903 5904 5906 5907 5909 5911 5912 5913 5915 5916 5918 5920 5921 5922 5923 5923 5924 5924 5924 5924 5923 5923 5922 5921 5921 5919 5915 5915 5916 5914 5913 5911 5909 5907 5905 5904 5902 5899 5897 5895 5892 5889 5887
5822 5824 5825 5827 5828 5830 5832 5834 5836 5838 5840 5842 5844 5846 5848 5850 5852 5854 5856 5858 5860 5862 5864 5866 5868 5870 5872 5874 5875 5877 5878 5880 5881 5883 5884 5886 5887 5888 5890 5891 5893 5894 5896 5898 5899 5901 5903 5905 5906 5909 5912 5914 5914 5914 5915 5916 5918 5919 5920 5921 5922 5922 5923 5923 5922 5921 5920 5919 5918 5918 5917 5914 5914 5913 5912 5911 5909 5906 5905 5903 5901 5899 5896 5894 5891 5889 5887 5885
5820 5822 5823 5825 5827 5829 5831 5833 5835 5837 5839 5841 5843 5845 5846 5849 5851 5853 5855 5857 5859 5861 5863 5866 5868 5869 5872 5873 5875 5876 5877 5879 5881 5882 5884 5886 5886 5888 5889 5890 5892 5893 5895 5896 5897 5899 5902 5904 5906 5908 5910 5911 5911 5912 5913 5915 5916 5918 5919 5920 5920 5921 5921 5920 5919 5918 5917 5917 5916 5915 5915 5913 5912 5911 5910 5908 5906 5904 5902 5900 5898 5896 5893 5891 5888 5886 5884 5882
5819 5820 5822 5824 5826 5828 5830 5832 5834 5835 5837 5839 5841 5843 5845 5847 5849 5851 5853 5856 5858 5861 5863 5865 5867 5869 5872 5873 5874 5875 5877 5879 5881 5882 5884 5885 5886 5887 5889 5890 5891 5892 5894 5895 5896 5898 5901 5903 5905 5907 5909 5910 5911 5912 5913 5914 5915 5916 5917 5918 5919 5920 5919 5918 5917 5916 5915 5916 5914 5912 5912 5911 5910 5908 5907 5905 5903 5901 5899 5897 5894 5892 5889 5887 5885 5883 5881 5879
5817 5819 5821 5822 5824 5826 5828 5830 5832 5834 5836 5838 5840 5842 5844 5846 5848 5850 5852 5855 5857 5860 5862 5865 5867 5869 5871 5873 5874 5875 5877 5878 5880 5882 5883 5885 5886 5887 5888 5890 5891 5892 5893 5895 5896 5898 5901 5903 5905 5907 5909 5910 5911 5912 5912 5913 5914 5915 5916 5917 5917 5917 5917 5916 5916 5916 5915 5914 5912 5910 5910 5909 5907 5906 5904 5902 5900 5898 5895 5893 5891 5888 5886 5884 5882 5880 5878 5876
5815 5817 5819 5821 5823 5825 5827 5829 5831 5833 5835 5837 5839 5840 5842 5844 5846 5848 5851 5854 5857 5859 5862 5864 5867 5869 5871 5872 5873 5875 5876 5878 5879 5881 5883 5884 5886 5887 5888 5889 5890 5891 5893 5895 5898 5900 5902 5904 5905 5907 5908 5909 5910 5911 5912 5912 5913 5913 5914 5915 5915 5915 5914 5914 5914 5913 5912 5912 5910 5908 5907 5906 5904 5903 5901 5899 5897 5894 5892 5890 5887 5885 5883 5881 5879 5877 5875 5873
5814 5816 5818 5819 5821 5824 5826 5828 5830 5832 5834 5836 5837 5839 5841 5843 5845 5847 5850 5853 5856 5859 5861 5863 5866 5869 5870 5871 5873 5875 5876 5877 5879 5881 5883 5884 5886 5887 5888 5889 5890 5892 5894 5896 5899 5901 5903 5904 5905 5907 5908 5909 5909 5910 5910 5911 5911 5912 5912 5912 5912 5912 5912 5911 5911 5910 5909 5908 5907 5906 5905 5903 5902 5900 5898 5896 5894 5891 5889 5887 5885 5883 5880 5878 5876 5873 5871 5869
5812 5814 5816 5818 5820 5822 5824 5826 5828 5830 5832 5834 5836 5838 5839 5841 5844 5846 5849 5852 5855 5858 5860 5863 5866 5868 5870 5871 5872 5874 5876 5877 5879 5881 5882 5884 5886 5887 5888 5890 5891 5893 5895 5897 5899 5901 5902 5904 5905 5905 5906 5907 5908 5909 5909 5909 5909 5909 5910 5910 5910 5909 5909 5908 5908 5907 5906 5905 5904 5903 5901 5900 5898 5896 5895 5893 5890 5888 5886 5884 5882 5880 5878 5875 5873 5870 5868 5866
5811 5813 5815 5816 5819 5821 5823 5825 5827 5829 5830 5832 5834 5836 5838 5840 5842 5845 5848 5851 5854 5857 5859 5862 5865 5867 5869 5870 5871 5873 5875 5877 5879 5881 5882 5884 5886 5887 5889 5890 5892 5894 5896 5898 5899 5901 5902 5903 5904 5903 5904 5905 5906 5907 5907 5907 5907 5906 5907 5907 5907 5907 5906 5906 5905 5904 5903 5902 5901 5899 5898 5896 5895 5893 5891 5889 5887 5885 5883 5881 5879 5877 5874 5872 5869 5867 5865 5863